TimeCDT,TemperatureF,Dew PointF,Humidity,Sea Level PressureIn,VisibilityMPH,Wind Direction,Wind SpeedMPH,Gust SpeedMPH,PrecipitationIn,Events,Conditions,WindDirDegrees,DateUTC
12:53 AM,62.1,60.1,93,30.10,10.0,Calm,Calm,-,N/A,,Clear,0,2013-10-10 05:53:00
1:53 AM,62.1,60.1,93,30.10,10.0,South,4.6,-,N/A,,Clear,190,2013-10-10 06:53:00
2:53 AM,59.0,57.9,96,30.10,4.0,SE,3.5,-,N/A,,Scattered Clouds,130,2013-10-10 07:53:00
3:21 AM,59.0,57.2,94,30.10,1.8,Calm,Calm,-,N/A,,Partly Cloudy,0,2013-10-10 08:21:00
3:24 AM,57.2,57.2,100,30.10,0.8,Calm,Calm,-,N/A,,Partly Cloudy,0,2013-10-10 08:24:00
3:34 AM,59.0,57.2,94,30.11,1.0,Calm,Calm,-,N/A,,Mist,0,2013-10-10 08:34:00
3:37 AM,59.0,57.2,94,30.11,2.0,Calm,Calm,-,N/A,,Partly Cloudy,0,2013-10-10 08:37:00
3:44 AM,57.2,57.2,100,30.11,10.0,Calm,Calm,-,N/A,,Scattered Clouds,0,2013-10-10 08:44:00
3:53 AM,57.0,55.9,96,30.11,2.0,Calm,Calm,-,N/A,,Scattered Clouds,0,2013-10-10 08:53:00
4:00 AM,57.2,55.4,94,30.11,1.0,Calm,Calm,-,N/A,,Mostly Cloudy,0,2013-10-10 09:00:00
4:09 AM,57.2,57.2,100,30.11,0.8,Calm,Calm,-,N/A,,Mostly Cloudy,0,2013-10-10 09:09:00
4:16 AM,57.2,55.4,94,30.11,1.5,Calm,Calm,-,N/A,,Mostly Cloudy,0,2013-10-10 09:16:00
4:26 AM,57.2,55.4,94,30.11,0.5,Calm,Calm,-,N/A,Fog,Fog,0,2013-10-10 09:26:00
4:53 AM,57.0,55.9,96,30.12,1.0,Calm,Calm,-,N/A,,Overcast,0,2013-10-10 09:53:00
5:14 AM,57.2,57.2,100,30.12,0.8,Calm,Calm,-,N/A,,Overcast,0,2013-10-10 10:14:00
5:20 AM,57.2,57.2,100,30.12,2.5,Calm,Calm,-,N/A,,Overcast,0,2013-10-10 10:20:00
5:27 AM,57.2,55.4,94,30.12,3.0,Calm,Calm,-,N/A,,Overcast,0,2013-10-10 10:27:00
5:34 AM,57.2,55.4,94,30.12,2.5,Calm,Calm,-,N/A,,Overcast,0,2013-10-10 10:34:00
5:41 AM,57.2,55.4,94,30.13,0.8,Calm,Calm,-,N/A,,Mist,0,2013-10-10 10:41:00
5:53 AM,57.0,55.9,96,30.12,0.5,Calm,Calm,-,N/A,Fog,Fog,0,2013-10-10 10:53:00
6:49 AM,57.2,55.4,94,30.13,2.0,Calm,Calm,-,N/A,,Overcast,0,2013-10-10 11:49:00
6:53 AM,57.0,55.9,96,30.14,8.0,Calm,Calm,-,N/A,,Overcast,0,2013-10-10 11:53:00
7:53 AM,61.0,61.0,100,30.14,9.0,Calm,Calm,-,N/A,,Overcast,0,2013-10-10 12:53:00
8:07 AM,62.6,62.6,100,30.15,1.8,Calm,Calm,-,N/A,,Overcast,0,2013-10-10 13:07:00
8:17 AM,62.6,62.6,100,30.15,0.5,Calm,Calm,-,N/A,Fog,Fog,0,2013-10-10 13:17:00
8:27 AM,62.6,62.6,100,30.15,0.2,Calm,Calm,-,N/A,Fog,Fog,0,2013-10-10 13:27:00
8:39 AM,62.6,62.6,100,30.16,0.5,Calm,Calm,-,N/A,Fog,Fog,0,2013-10-10 13:39:00
8:53 AM,63.0,63.0,100,30.16,1.2,Calm,Calm,-,N/A,,Overcast,0,2013-10-10 13:53:00
8:57 AM,64.4,62.6,94,30.16,3.0,Calm,Calm,-,N/A,,Overcast,0,2013-10-10 13:57:00
9:53 AM,64.9,64.0,97,30.17,8.0,Calm,Calm,-,N/A,,Overcast,0,2013-10-10 14:53:00
10:33 AM,66.2,64.4,94,30.17,10.0,Calm,Calm,-,N/A,,Overcast,0,2013-10-10 15:33:00
10:53 AM,69.1,64.0,84,30.16,10.0,Variable,3.5,-,N/A,,Overcast,0,2013-10-10 15:53:00
11:11 AM,69.8,64.4,83,30.16,10.0,Calm,Calm,-,N/A,,Mostly Cloudy,0,2013-10-10 16:11:00
11:26 AM,69.8,62.6,78,30.17,10.0,WSW,3.5,-,N/A,,Mostly Cloudy,250,2013-10-10 16:26:00
11:50 AM,71.6,62.6,73,30.16,10.0,Calm,Calm,-,N/A,,Scattered Clouds,0,2013-10-10 16:50:00
11:53 AM,73.0,63.0,71,30.15,10.0,Variable,3.5,-,N/A,,Partly Cloudy,0,2013-10-10 16:53:00
12:53 PM,73.9,63.0,68,30.13,10.0,WNW,4.6,-,N/A,,Partly Cloudy,290,2013-10-10 17:53:00
1:53 PM,73.0,61.0,66,30.10,10.0,NNW,3.5,-,N/A,,Scattered Clouds,330,2013-10-10 18:53:00
2:53 PM,75.0,61.0,62,30.08,10.0,Calm,Calm,-,N/A,,Scattered Clouds,0,2013-10-10 19:53:00
3:53 PM,77.0,59.0,54,30.05,10.0,Variable,3.5,-,N/A,,Clear,0,2013-10-10 20:53:00
4:53 PM,75.9,59.0,56,30.04,10.0,Calm,Calm,-,N/A,,Clear,0,2013-10-10 21:53:00
5:53 PM,73.9,59.0,59,30.04,10.0,Calm,Calm,-,N/A,,Clear,0,2013-10-10 22:53:00
6:08 PM,73.4,59.0,61,30.04,10.0,Calm,Calm,-,N/A,,Partly Cloudy,0,2013-10-10 23:08:00
6:53 PM,71.1,60.1,68,30.03,10.0,Calm,Calm,-,N/A,,Clear,0,2013-10-10 23:53:00
7:53 PM,66.0,59.0,78,30.02,10.0,Calm,Calm,-,N/A,,Clear,0,2013-10-11 00:53:00
8:53 PM,64.9,59.0,81,30.03,10.0,Calm,Calm,-,N/A,,Clear,0,2013-10-11 01:53:00
9:53 PM,63.0,59.0,87,30.03,10.0,ESE,3.5,-,N/A,,Clear,120,2013-10-11 02:53:00
10:53 PM,63.0,61.0,93,30.01,10.0,ESE,4.6,-,N/A,,Clear,110,2013-10-11 03:53:00
11:53 PM,62.1,60.1,93,30.01,10.0,Calm,Calm,-,N/A,,Clear,0,2013-10-11 04:53:00